Time,TemperatureF,DewpointF,PressureIn,WindDirection,WindDirectionDegrees,WindSpeedMPH,WindSpeedGustMPH,Humidity,HourlyPrecipIn,Conditions,Clouds,dailyrainin,SolarRadiationWatts/m^2,SoftwareType,DateUTC
2013-06-04 00:02:00,60.0,42.0,-100.00,East,81,5.0,11.0,52,0.00,,,0.01,0.000000,,2013-06-04 05:02:00,
2013-06-04 00:12:00,60.0,42.0,-100.00,East,81,5.0,11.0,52,0.00,,,0.01,0.000000,,2013-06-04 05:12:00,
2013-06-04 00:20:00,59.0,42.0,-100.00,East,86,5.0,10.0,53,0.00,,,0.01,0.000000,,2013-06-04 05:20:00,
2013-06-04 00:42:00,59.0,42.0,-100.00,East,86,5.0,10.0,53,0.00,,,0.01,0.000000,,2013-06-04 05:42:00,
2013-06-04 00:52:00,59.0,42.0,-100.00,East,86,5.0,10.0,53,0.00,,,0.01,0.000000,,2013-06-04 05:52:00,
2013-06-04 01:02:00,59.0,42.0,-100.00,East,86,5.0,10.0,53,0.00,,,0.01,0.000000,,2013-06-04 06:02:00,
2013-06-04 01:12:00,59.0,42.0,-100.00,East,86,5.0,10.0,53,0.00,,,0.01,0.000000,,2013-06-04 06:12:00,
2013-06-04 01:20:00,59.0,41.0,-100.00,East,96,8.0,15.0,51,0.00,,,0.01,0.000000,,2013-06-04 06:20:00,
2013-06-04 01:42:00,59.0,41.0,-100.00,East,96,8.0,15.0,51,0.00,,,0.01,0.000000,,2013-06-04 06:42:00,
2013-06-04 01:52:00,59.0,41.0,-100.00,East,96,8.0,15.0,51,0.00,,,0.01,0.000000,,2013-06-04 06:52:00,
2013-06-04 02:02:00,59.0,41.0,-100.00,East,96,8.0,15.0,51,0.00,,,0.01,0.000000,,2013-06-04 07:02:00,
2013-06-04 02:12:00,59.0,41.0,-100.00,East,96,8.0,15.0,51,0.00,,,0.01,0.000000,,2013-06-04 07:12:00,
2013-06-04 02:20:00,58.0,40.0,-100.00,ENE,76,3.0,11.0,51,0.00,,,0.01,0.000000,,2013-06-04 07:20:00,
2013-06-04 02:42:00,58.0,40.0,-100.00,ENE,76,3.0,11.0,51,0.00,,,0.01,0.000000,,2013-06-04 07:42:00,
2013-06-04 02:52:00,58.0,40.0,-100.00,ENE,76,3.0,11.0,51,0.00,,,0.01,0.000000,,2013-06-04 07:52:00,
2013-06-04 03:02:00,58.0,40.0,-100.00,ENE,76,3.0,11.0,51,0.00,,,0.01,0.000000,,2013-06-04 08:02:00,
2013-06-04 03:12:00,58.0,40.0,-100.00,ENE,76,3.0,11.0,51,0.00,,,0.01,0.000000,,2013-06-04 08:12:00,
2013-06-04 03:20:00,55.0,41.0,-100.00,North,7,1.0,7.0,58,0.00,,,-99.99,0.000000,,2013-06-04 08:20:00,
2013-06-04 03:42:00,55.0,41.0,-100.00,North,7,1.0,7.0,58,0.00,,,-99.99,0.000000,,2013-06-04 08:42:00,
2013-06-04 03:52:00,55.0,41.0,-100.00,North,7,1.0,7.0,58,0.00,,,-99.99,0.000000,,2013-06-04 08:52:00,
2013-06-04 04:02:00,55.0,41.0,-100.00,North,7,1.0,7.0,58,0.00,,,-99.99,0.000000,,2013-06-04 09:02:00,
2013-06-04 04:12:00,55.0,41.0,-100.00,North,7,1.0,7.0,58,0.00,,,-99.99,0.000000,,2013-06-04 09:12:00,
2013-06-04 04:20:00,54.0,42.0,-100.00,ENE,73,3.0,6.0,64,0.00,,,0.01,0.000000,,2013-06-04 09:20:00,
2013-06-04 04:43:00,54.0,42.0,-100.00,ENE,73,3.0,6.0,64,0.00,,,0.01,0.000000,,2013-06-04 09:43:00,
2013-06-04 04:53:00,54.0,42.0,-100.00,ENE,73,3.0,6.0,64,0.00,,,0.01,0.000000,,2013-06-04 09:53:00,
2013-06-04 05:02:00,54.0,42.0,-100.00,ENE,73,3.0,6.0,64,0.00,,,0.01,0.000000,,2013-06-04 10:02:00,
2013-06-04 05:12:00,54.0,42.0,-100.00,ENE,73,3.0,6.0,64,0.00,,,0.01,0.000000,,2013-06-04 10:12:00,
2013-06-04 05:20:00,55.0,40.0,-100.00,East,83,6.0,9.0,57,0.00,,,0.01,0.000000,,2013-06-04 10:20:00,
2013-06-04 05:42:00,55.0,40.0,-100.00,East,83,6.0,9.0,57,0.00,,,0.01,0.000000,,2013-06-04 10:42:00,
2013-06-04 05:53:00,55.0,40.0,-100.00,East,83,6.0,9.0,57,0.00,,,0.01,0.000000,,2013-06-04 10:53:00,
2013-06-04 06:02:00,55.0,40.0,-100.00,East,83,6.0,9.0,57,0.00,,,0.01,0.000000,,2013-06-04 11:02:00,
2013-06-04 06:12:00,55.0,40.0,-100.00,East,83,6.0,9.0,57,0.00,,,0.01,0.000000,,2013-06-04 11:12:00,
2013-06-04 06:20:00,55.0,40.0,-100.00,East,91,8.0,13.0,56,0.00,,,0.01,7.000000,,2013-06-04 11:20:00,
2013-06-04 06:43:00,55.0,40.0,-100.00,East,91,8.0,13.0,56,0.00,,,0.01,7.000000,,2013-06-04 11:43:00,
2013-06-04 06:52:00,55.0,40.0,-100.00,East,91,8.0,13.0,56,0.00,,,0.01,7.000000,,2013-06-04 11:52:00,
2013-06-04 07:02:00,55.0,40.0,-100.00,East,91,8.0,13.0,56,0.00,,,0.01,7.000000,,2013-06-04 12:02:00,
2013-06-04 07:12:00,55.0,40.0,-100.00,East,91,8.0,13.0,56,0.00,,,0.01,7.000000,,2013-06-04 12:12:00,
2013-06-04 07:20:00,54.0,44.0,-100.00,East,84,6.0,13.0,69,0.00,,,0.00,24.000000,,2013-06-04 12:20:00,
2013-06-04 07:42:00,54.0,44.0,-100.00,East,84,6.0,13.0,69,0.00,,,0.00,24.000000,,2013-06-04 12:42:00,
2013-06-04 07:53:00,54.0,44.0,-100.00,East,84,6.0,13.0,69,0.00,,,0.00,24.000000,,2013-06-04 12:53:00,
2013-06-04 08:02:00,54.0,44.0,-100.00,East,84,6.0,13.0,69,0.00,,,0.00,24.000000,,2013-06-04 13:02:00,
2013-06-04 08:12:00,54.0,44.0,-100.00,East,84,6.0,13.0,69,0.00,,,0.00,24.000000,,2013-06-04 13:12:00,
2013-06-04 08:20:00,53.0,46.0,-100.00,ENE,77,5.0,9.0,76,0.00,,,0.00,34.000000,,2013-06-04 13:20:00,
2013-06-04 08:42:00,53.0,46.0,-100.00,ENE,77,5.0,9.0,76,0.00,,,0.00,34.000000,,2013-06-04 13:42:00,
2013-06-04 08:52:00,53.0,46.0,-100.00,ENE,77,5.0,9.0,76,0.00,,,0.00,34.000000,,2013-06-04 13:52:00,
2013-06-04 09:02:00,53.0,46.0,-100.00,ENE,77,5.0,9.0,76,0.00,,,0.00,34.000000,,2013-06-04 14:02:00,
2013-06-04 09:12:00,53.0,46.0,-100.00,ENE,77,5.0,9.0,76,0.00,,,0.00,34.000000,,2013-06-04 14:12:00,
2013-06-04 09:20:00,54.0,46.0,-100.00,ENE,76,6.0,11.0,75,0.00,,,0.00,44.000000,,2013-06-04 14:20:00,
2013-06-04 09:43:00,54.0,46.0,-100.00,ENE,76,6.0,11.0,75,0.00,,,0.00,44.000000,,2013-06-04 14:43:00,
2013-06-04 09:52:00,54.0,46.0,-100.00,ENE,76,6.0,11.0,75,0.00,,,0.00,44.000000,,2013-06-04 14:52:00,
2013-06-04 10:02:00,54.0,46.0,-100.00,ENE,76,6.0,11.0,75,0.00,,,0.00,44.000000,,2013-06-04 15:02:00,
2013-06-04 10:12:00,54.0,46.0,-100.00,ENE,76,6.0,11.0,75,0.00,,,0.00,44.000000,,2013-06-04 15:12:00,
2013-06-04 10:20:00,54.0,51.0,-100.00,NE,54,5.0,10.0,88,0.00,,,0.00,83.000000,,2013-06-04 15:20:00,
2013-06-04 10:42:00,54.0,51.0,-100.00,NE,54,5.0,10.0,88,0.00,,,0.00,83.000000,,2013-06-04 15:42:00,
2013-06-04 10:53:00,54.0,51.0,-100.00,NE,54,5.0,10.0,88,0.00,,,0.00,83.000000,,2013-06-04 15:53:00,
2013-06-04 11:03:00,54.0,51.0,-100.00,NE,54,5.0,10.0,88,0.00,,,0.00,83.000000,,2013-06-04 16:03:00,
2013-06-04 11:12:00,54.0,51.0,-100.00,NE,54,5.0,10.0,88,0.00,,,0.00,83.000000,,2013-06-04 16:12:00,
2013-06-04 11:20:00,54.0,51.0,-100.00,East,84,8.0,12.0,91,0.01,,,0.01,102.000000,,2013-06-04 16:20:00,
2013-06-04 11:42:00,54.0,51.0,-100.00,East,84,8.0,12.0,91,0.01,,,0.01,102.000000,,2013-06-04 16:42:00,
2013-06-04 11:53:00,54.0,51.0,-100.00,East,84,8.0,12.0,91,0.01,,,0.01,102.000000,,2013-06-04 16:53:00,
2013-06-04 12:03:00,54.0,51.0,-100.00,East,84,8.0,12.0,91,0.01,,,0.01,102.000000,,2013-06-04 17:03:00,
2013-06-04 12:12:00,54.0,51.0,-100.00,East,84,8.0,12.0,91,0.01,,,0.01,102.000000,,2013-06-04 17:12:00,
2013-06-04 12:20:00,59.0,54.0,-100.00,East,100,10.0,18.0,85,0.00,,,0.01,348.000000,,2013-06-04 17:20:00,
2013-06-04 12:42:00,59.0,54.0,-100.00,East,100,10.0,18.0,85,0.00,,,0.01,348.000000,,2013-06-04 17:42:00,
2013-06-04 12:52:00,59.0,54.0,-100.00,East,100,10.0,18.0,85,0.00,,,0.01,348.000000,,2013-06-04 17:52:00,
2013-06-04 13:02:00,59.0,54.0,-100.00,East,100,10.0,18.0,85,0.00,,,0.01,348.000000,,2013-06-04 18:02:00,
2013-06-04 13:12:00,59.0,54.0,-100.00,East,100,10.0,18.0,85,0.00,,,0.01,348.000000,,2013-06-04 18:12:00,
2013-06-04 13:20:00,61.0,54.0,-100.00,ESE,107,11.0,19.0,77,0.00,,,0.01,541.000000,,2013-06-04 18:20:00,
2013-06-04 13:42:00,61.0,54.0,-100.00,ESE,107,11.0,19.0,77,0.00,,,0.01,541.000000,,2013-06-04 18:42:00,
2013-06-04 13:53:00,61.0,54.0,-100.00,ESE,107,11.0,19.0,77,0.00,,,0.01,541.000000,,2013-06-04 18:53:00,
2013-06-04 14:02:00,61.0,54.0,-100.00,ESE,107,11.0,19.0,77,0.00,,,0.01,541.000000,,2013-06-04 19:02:00,
2013-06-04 14:12:00,61.0,54.0,-100.00,ESE,107,11.0,19.0,77,0.00,,,0.01,541.000000,,2013-06-04 19:12:00,
2013-06-04 14:20:00,61.0,53.0,-100.00,ESE,105,10.0,24.0,74,0.01,,,0.02,131.000000,,2013-06-04 19:20:00,
2013-06-04 14:42:00,61.0,53.0,-100.00,ESE,105,10.0,24.0,74,0.01,,,0.02,131.000000,,2013-06-04 19:42:00,
2013-06-04 14:52:00,61.0,53.0,-100.00,ESE,105,10.0,24.0,74,0.01,,,0.02,131.000000,,2013-06-04 19:52:00,
2013-06-04 15:03:00,61.0,53.0,-100.00,ESE,105,10.0,24.0,74,0.01,,,0.02,131.000000,,2013-06-04 20:03:00,
2013-06-04 15:12:00,61.0,53.0,-100.00,ESE,105,10.0,24.0,74,0.01,,,0.02,131.000000,,2013-06-04 20:12:00,
2013-06-04 15:20:00,58.0,55.0,-100.00,East,86,5.0,19.0,90,0.00,,,0.02,86.000000,,2013-06-04 20:20:00,
2013-06-04 15:42:00,58.0,55.0,-100.00,East,86,5.0,19.0,90,0.00,,,0.02,86.000000,,2013-06-04 20:42:00,
2013-06-04 15:53:00,58.0,55.0,-100.00,East,86,5.0,19.0,90,0.00,,,0.02,86.000000,,2013-06-04 20:53:00,
2013-06-04 16:02:00,58.0,55.0,-100.00,East,86,5.0,19.0,90,0.00,,,0.02,86.000000,,2013-06-04 21:02:00,
2013-06-04 16:12:00,58.0,55.0,-100.00,East,86,5.0,19.0,90,0.00,,,0.02,86.000000,,2013-06-04 21:12:00,
2013-06-04 16:20:00,57.0,55.0,-100.00,SE,125,10.0,15.0,92,0.01,,,0.03,136.000000,,2013-06-04 21:20:00,
2013-06-04 16:42:00,57.0,55.0,-100.00,SE,125,10.0,15.0,92,0.01,,,0.03,136.000000,,2013-06-04 21:42:00,
2013-06-04 16:53:00,57.0,55.0,-100.00,SE,125,10.0,15.0,92,0.01,,,0.03,136.000000,,2013-06-04 21:53:00,
2013-06-04 17:02:00,57.0,55.0,-100.00,SE,125,10.0,15.0,92,0.01,,,0.03,136.000000,,2013-06-04 22:02:00,
2013-06-04 17:12:00,57.0,55.0,-100.00,SE,125,10.0,15.0,92,0.01,,,0.03,136.000000,,2013-06-04 22:12:00,
2013-06-04 17:20:00,58.0,54.0,-100.00,SSE,147,6.0,16.0,87,0.00,,,0.03,160.000000,,2013-06-04 22:20:00,
2013-06-04 17:42:00,58.0,54.0,-100.00,SSE,147,6.0,16.0,87,0.00,,,0.03,160.000000,,2013-06-04 22:42:00,
2013-06-04 17:52:00,58.0,54.0,-100.00,SSE,147,6.0,16.0,87,0.00,,,0.03,160.000000,,2013-06-04 22:52:00,
2013-06-04 18:02:00,58.0,54.0,-100.00,SSE,147,6.0,16.0,87,0.00,,,0.03,160.000000,,2013-06-04 23:02:00,
2013-06-04 18:12:00,58.0,54.0,-100.00,SSE,147,6.0,16.0,87,0.00,,,0.03,160.000000,,2013-06-04 23:12:00,
2013-06-04 18:20:00,58.0,53.0,-100.00,ESE,117,7.0,12.0,82,0.00,,,0.03,69.000000,,2013-06-04 23:20:00,
2013-06-04 18:42:00,58.0,53.0,-100.00,ESE,117,7.0,12.0,82,0.00,,,0.03,69.000000,,2013-06-04 23:42:00,
2013-06-04 18:52:00,58.0,53.0,-100.00,ESE,117,7.0,12.0,82,0.00,,,0.03,69.000000,,2013-06-04 23:52:00,
2013-06-04 19:02:00,58.0,53.0,-100.00,ESE,117,7.0,12.0,82,0.00,,,0.03,69.000000,,2013-06-05 00:02:00,
2013-06-04 19:12:00,58.0,53.0,-100.00,ESE,117,7.0,12.0,82,0.00,,,0.03,69.000000,,2013-06-05 00:12:00,
2013-06-04 19:20:00,57.0,51.0,-100.00,South,179,3.0,13.0,81,0.00,,,0.03,28.000000,,2013-06-05 00:20:00,
2013-06-04 19:42:00,57.0,51.0,-100.00,South,179,3.0,13.0,81,0.00,,,0.03,28.000000,,2013-06-05 00:42:00,
2013-06-04 19:52:00,57.0,51.0,-100.00,South,179,3.0,13.0,81,0.00,,,0.03,28.000000,,2013-06-05 00:52:00,
2013-06-04 20:02:00,57.0,51.0,-100.00,South,179,3.0,13.0,81,0.00,,,0.03,28.000000,,2013-06-05 01:02:00,
2013-06-04 20:12:00,57.0,51.0,-100.00,South,179,3.0,13.0,81,0.00,,,0.03,28.000000,,2013-06-05 01:12:00,
2013-06-04 20:20:00,54.0,52.0,-100.00,East,97,7.0,13.0,92,0.01,,,0.04,4.000000,,2013-06-05 01:20:00,
2013-06-04 20:42:00,54.0,52.0,-100.00,East,97,7.0,13.0,92,0.01,,,0.04,4.000000,,2013-06-05 01:42:00,
2013-06-04 20:52:00,54.0,52.0,-100.00,East,97,7.0,13.0,92,0.01,,,0.04,4.000000,,2013-06-05 01:52:00,
2013-06-04 21:02:00,54.0,52.0,-100.00,East,97,7.0,13.0,92,0.01,,,0.04,4.000000,,2013-06-05 02:02:00,
2013-06-04 21:12:00,54.0,52.0,-100.00,East,97,7.0,13.0,92,0.01,,,0.04,4.000000,,2013-06-05 02:12:00,
2013-06-04 21:20:00,54.0,53.0,-100.00,NNW,330,2.0,13.0,95,0.00,,,-99.99,3.000000,,2013-06-05 02:20:00,
2013-06-04 21:42:00,54.0,53.0,-100.00,NNW,330,2.0,13.0,95,0.00,,,-99.99,3.000000,,2013-06-05 02:42:00,
2013-06-04 21:52:00,54.0,53.0,-100.00,NNW,330,2.0,13.0,95,0.00,,,-99.99,3.000000,,2013-06-05 02:52:00,
2013-06-04 22:02:00,54.0,53.0,-100.00,NNW,330,2.0,13.0,95,0.00,,,-99.99,3.000000,,2013-06-05 03:02:00,
2013-06-04 22:12:00,54.0,53.0,-100.00,NNW,330,2.0,13.0,95,0.00,,,-99.99,3.000000,,2013-06-05 03:12:00,
2013-06-04 22:20:00,53.0,52.0,-100.00,ESE,111,10.0,15.0,95,0.00,,,0.04,0.000000,,2013-06-05 03:20:00,
2013-06-04 22:43:00,53.0,52.0,-100.00,ESE,111,10.0,15.0,95,0.00,,,0.04,0.000000,,2013-06-05 03:43:00,
2013-06-04 22:53:00,53.0,52.0,-100.00,ESE,111,10.0,15.0,95,0.00,,,0.04,0.000000,,2013-06-05 03:53:00,
2013-06-04 23:02:00,53.0,52.0,-100.00,ESE,111,10.0,15.0,95,0.00,,,0.04,0.000000,,2013-06-05 04:02:00,
2013-06-04 23:13:00,53.0,52.0,-100.00,ESE,111,10.0,15.0,95,0.00,,,0.04,0.000000,,2013-06-05 04:13:00,
2013-06-04 23:20:00,53.0,51.0,-100.00,ESE,114,7.0,13.0,94,0.00,,,0.04,0.000000,,2013-06-05 04:20:00,
2013-06-04 23:42:00,53.0,51.0,-100.00,ESE,114,7.0,13.0,94,0.00,,,0.04,0.000000,,2013-06-05 04:42:00,
2013-06-04 23:53:00,53.0,51.0,-100.00,ESE,114,7.0,13.0,94,0.00,,,0.04,0.000000,,2013-06-05 04:53:00,